Regional Weather Roundup
Issued by NWS San Diego, CA

Home | Current Version | Previous Version | Text Only | Print | Product List | Glossary On
Versions: 1 2 3 4 5 6 7 8 9 10 11 12 13 14 15 16 17 18 19 20 21 22 23 24 25 26 27 28 29 30 31 32 33 34 35 36 37 38 39 40 41 42 43 44 45 46 47 48 49 50
000
ASUS46 KSGX 291011
RWRSGX

SAN DIEGO HOURLY WEATHER ROUNDUP
NATIONAL WEATHER SERVICE SAN DIEGO CA
300 AM PDT SAT AUG 29 2015

NOTE: "FAIR" INDICATES FEW OR NO CLOUDS BELOW 12,000 FEET WITH NO
SIGNIFICANT WEATHER AND/OR OBSTRUCTIONS TO VISIBILITY.

CAZ042-043-060-061-PZZ750-775-291100-

GREATER SAN DIEGO AREA

CITY           SKY/WX    TMP DP  RH WIND       PRES   REMARKS
LINDBERGH FLD  FAIR      75  70  84 W3        29.86F
POINT LOMA       N/A     71  68  92 W1          N/A
NATIONAL CITY    N/A     74  71  91 CALM      29.85F
CHULA VISTA      N/A     72  71  95 CALM      29.77F
IMPERIAL BEACH CLOUDY   N/A N/A N/A CALM      29.85F
BROWN FIELD    FAIR      71  70  96 CALM      29.86F
MIRAMAR MCAS   FAIR      73  64  73 CALM      29.86F
MONTGOMERY FLD FAIR      73  69  87 CALM      29.86F

$$

NORTH SAN DIEGO COUNTY

CITY           SKY/WX    TMP DP  RH WIND       PRES   REMARKS
CAMP PENDLETON CLOUDY    70  57  63 NE3       29.86F
OCEANSIDE AP   CLOUDY    73  64  73 N3        29.85F
OCEANSIDE HBR    N/A     72  69  90 E2        29.88F
VISTA            N/A     69  63  82 CALM      29.84S
CARLSBAD       CLOUDY    72  71  97 CALM      29.86S FOG
FALLBROOK        N/A     70  69  97 CALM      29.86S
ESCONDIDO        N/A     73  58  59 CALM      29.87S
SAN MARCOS       N/A     72  63  73 CALM      29.83F
POWAY            N/A     69  59  69 CALM      29.85F

$$

EAST SAN DIEGO COUNTY

CITY           SKY/WX    TMP DP  RH WIND       PRES   REMARKS
RAMONA         FAIR      66  50  56 CALM      29.91F
SANTEE LAKES     N/A     69  60  72 CALM      29.84F
LA MESA          N/A     71  69  94 CALM      29.77F
JAMUL            N/A     69  65  86 CALM      29.83F
DESCANSO N       N/A     67  45  44 E5        29.72F
CAMPO            N/A     64  48  56 NE7       29.95F

$$

ORANGE COUNTY AND THE LOS ANGELES BASIN

CITY           SKY/WX    TMP DP  RH WIND       PRES   REMARKS
JOHN WAYNE AP  FAIR      73  66  78 CALM      29.86S
LAKE FOREST FR   N/A     71  55  56 CALM      29.73S
SANTA ANA        N/A     72  63  72 CALM      29.81S
HUNTINGTON BCH   N/A     69  67  92 CALM      29.88R
LOS ALAMITOS   FAIR      72  69  89 SE1       29.85S
FULLERTON      FAIR      75  66  73 CALM      29.85S
LONG BEACH     FAIR      74  68  81 SE3       29.85S
L.A. AP        FAIR      73  66  78 CALM      29.86S
L.A. DOWNTOWN  FAIR      74  65  73 CALM      29.85F

$$

THE INLAND EMPIRE

CITY           SKY/WX    TMP DP  RH WIND       PRES   REMARKS
CORONA         FAIR      72  58  61 W6        29.88R
CHINO          FAIR      72  60  66 CALM      29.89R
ONTARIO        FAIR      78  57  48 SW5       29.88S
RIVERSIDE AP   FAIR      76  56  49 CALM      29.89R
MORENO VALLEY    N/A     75  54  47 CALM      29.87F
MARCH ARB      FAIR      71  50  47 CALM      29.91S
HORSETHIEF CYN   N/A     73  42  33 SW3       29.88S
PERRIS           N/A     76  50  40 CALM      29.90S
MENIFEE          N/A     75  54  47 CALM      29.95S
HEMET EAST       N/A     76  43  30 CALM      29.87S
FRENCH VALLEY  FAIR      72  46  40 CALM      29.91S
TEMECULA         N/A     72  54  53 E1        29.87S

$$

SAN BERNARDINO AND RIVERSIDE COUNTY MOUNTAINS

CITY           SKY/WX    TMP DP  RH WIND       PRES   REMARKS
BIG BEAR AP    FAIR      54  41  62 CALM      30.28S
ANGELUS OAKS     N/A     64  46  51 CALM      29.74F
PINE COVE        N/A     68  47  46 N3        29.82F

$$

SOUTHERN DESERT INCLUDING THE COACHELLA VALLEY

CITY           SKY/WX    TMP DP  RH WIND       PRES   REMARKS
PALM SPRINGS   FAIR      91  53  27 CALM      29.78R
THOUSAND PALMS   N/A     95  48  19 W9        29.72F
PALM DESERT      N/A     87  60  40 CALM        N/A
THERMAL        FAIR      94  48  20 NW8       29.69F
BLYTHE         FAIR      93  63  36 S8        29.74S
IMPERIAL AP    FAIR      88  55  32 W7        29.71S
EL CENTRO NAS  FAIR      89  51  27 W10       29.73F
YUMA AZ        FAIR      92  66  42 S8        29.74S

$$

UPPER DESERT

CITY           SKY/WX    TMP DP  RH WIND       PRES   REMARKS
VICTORVILLE AP FAIR      72  46  40 CALM      29.99S
HESPERIA         N/A     74  52  45 W3        29.91S
APPLE VALLEY     N/A     70  52  52 CALM      30.04S
PALMDALE       FAIR      76  44  32 SW5       29.96F
LANCASTER      FAIR      80  43  26 W14       29.95S
EDWARDS AFB    FAIR      74  44  33 S6        29.92S
DAGGETT        FAIR      86  41  20 W13       29.89S
29 PALMS N     FAIR      85  48  27 NW7       29.96F
NEEDLES        FAIR      94  53  25 CALM      29.78S

$$

REGIONAL REPORTS

CITY           SKY/WX    TMP DP  RH WIND       PRES   REMARKS
SANTA BARBARA  FAIR      69  65  86 W7        29.82S
SANDBERG       FAIR      75  42  30 N18G26    30.12F
LAS VEGAS NV   FAIR      88  52  29 SW3       29.83F
PHOENIX AZ     FAIR      91  62  37 E3        29.79R
TIJUANA        CLEAR     72  66  83 CALM      29.89
ENSENADA NW      N/A     72  32  23 CALM      29.82F

$$

OFFSHORE ISLANDS

CITY           SKY/WX    TMP DP  RH WIND       PRES   REMARKS
CATALINA ARPT  FAIR      80  48  32 W6        29.93S
SAN NICOLAS IS FAIR     N/A N/A N/A NW20      29.87F

$$

MARINE AND OFFSHORE BUOY REPORTS

STATION/POSITION SKY/WX   TEMP    WIND        PRES    SWELL
                          AIR SEA DIR/SP/G            HT/PER/DIR
                          (F)     (DEG/KT/KT) (MB)    (FT/S/D)
TANNER BANKS               68 70  320/ 16/ 17 1011.5F   3/190/15
S CLEMENTE BASIN           70 73  280/ 10/ 10 1010.7F   3/170/15
SO. S. ROSA ISLA           65 65  310/ 17/ 23 1010.3F   3/15
W. S. BARBARA CH           64 67  310/ 23/ 27 1010.6F   3/310/15
M. S. BARBARA CH           73 70  280/ 12/ 16 1010.5S
S. MONICA BASIN            73 74   60/  4/  6 1010.9F   3/200/14
S PEDRO CHANNEL               73                N/A     2/220/15
DANA POINT                    74                N/A     2/210/14
OCEANSIDE OFFSHR              76                N/A     2/200/14
TORREY PINES OTR              75                N/A     2/210/15
MISSION BAY BUOY              76                N/A     2/220/14
POINT LOMA SOUTH              74                N/A     3/200/14

$$



USA.gov is the U.S. government's official web portal to all federal, state and local government web resources and services.